This is the latest recevied weather packets stored in our database for station/object 9M2ABD-1. If no packets are shown the sender has not sent any weather packets the latest 10 day(s).
| Time | Temp. | Humidity | Pressure | Rain* | Wind** | Luminosity | Snow |
|---|---|---|---|---|---|---|---|
| 1777785577 | 32.22° C | 72% | 1009.1 hPa | - | - | - | - |
| 1777784377 | 31.67° C | 73% | 1009.3 hPa | - | - | - | - |
| 1777783177 | 31.67° C | 73% | 1009.6 hPa | - | - | - | - |
| 1777781977 | 31.11° C | 75% | 1010 hPa | - | - | - | - |
| 1777780777 | 31.11° C | 76% | 1010.1 hPa | - | - | - | - |
| 1777779577 | 30.56° C | 77% | 1010.6 hPa | - | - | - | - |
| 1777778377 | 30.56° C | 77% | 1010.8 hPa | - | - | - | - |
| 1777777177 | 30° C | 78% | 1010.8 hPa | - | - | - | - |
| 1777775976 | 30° C | 78% | 1010.7 hPa | - | - | - | - |
| 1777774776 | 30° C | 78% | 1010.7 hPa | - | - | - | - |
| 1777773576 | 30° C | 79% | 1010.7 hPa | - | - | - | - |
| 1777772375 | 29.44° C | 79% | 1010.5 hPa | - | - | - | - |
| 1777771175 | 29.44° C | 79% | 1010.4 hPa | - | - | - | - |
| 1777770018 | 28.89° C | 79% | 1010.1 hPa | - | - | - | - |
| 1777769975 | 28.89° C | 79% | 1010.1 hPa | - | - | - | - |
| 1777768777 | 28.89° C | 79% | 1009.7 hPa | - | - | - | - |
| 1777767577 | 28.89° C | 79% | 1009.5 hPa | - | - | - | - |
| 1777766377 | 28.33° C | 79% | 1009.1 hPa | - | - | - | - |
| 1777765177 | 28.33° C | 79% | 1009 hPa | - | - | - | - |
| 1777763976 | 28.33° C | 79% | 1008.8 hPa | - | - | - | - |
| 1777762777 | 28.33° C | 79% | 1008.4 hPa | - | - | - | - |
| 1777761576 | 28.89° C | 79% | 1008.4 hPa | - | - | - | - |
| 1777760376 | 28.89° C | 78% | 1008.3 hPa | - | - | - | - |
| 1777759176 | 28.89° C | 78% | 1008.3 hPa | - | - | - | - |
| 1777757976 | 28.89° C | 78% | 1008.3 hPa | - | - | - | - |
* Rain since midnight (hover to see other rain measurements)
** Current wind speed in m/s (hover to see current wind gust speed)